Location: Home
(42.5358°N, 72.7383°W)
Time: 21:50:19
(UTC-05:00)

Vanguard 2 Rocket - Pass Details

Date: 03 December 2021
Orbit: 554 x 3325 km, 32.9° (Epoch: 21 January)

Event Time Altitude Azimuth Distance (km) Brightness Sun altitude
Rises 19:58:45 0° 256° (WSW) 3,789 10.9 -39.9°
Reaches altitude 10° 20:01:01 10° 250° (WSW) 3,092 10.2 -40.3°
Enters shadow 20:06:35 44° 210° (SSW) 2,046 8.6 -41.3°
Maximum altitude 20:08:35 49° 178° (S) 2,085 - -41.7°
Drops below altitude 10° 20:21:46 10° 110° (ESE) 5,249 - -44.1°
Sets 20:26:56 0° 106° (ESE) 6,646 - -45.0°
